When you browse on this site, cookies collect data to enhance your experience and personalize the content and advertising you see.
Visit our Privacy Policy to learn more. By continuing to use the site, you agree to this use of cookies and data.
  • In Spain
  • List of Countries
  • For 7 days
  • Water Temperature
  • Satellite Maps
  • Weather Map
  • Weather Widgets
  • user-avatar
    Login

    Hourly Weather Nazaret

    Today, 23 April, Tuesday

    Time Temperature Precipitation Wind Pressure Humidity
    00:00 +11°C° 0 mm 1 mps 732 mmHg 78%
    01:00 +11°C° 0 mm 1 mps 732 mmHg 78%
    02:00 +11°C° 0 mm 1 mps 732 mmHg 79%
    03:00 +11°C° 0 mm 1 mps 732 mmHg 80%
    04:00 +11°C° 0 mm 1 mps 733 mmHg 81%
    05:00 +10°C° 0 mm 1 mps 733 mmHg 82%
    06:00 +12°C° 0 mm 1 mps 733 mmHg 76%
    07:00 +14°C° 0 mm 1 mps 734 mmHg 70%
    08:00 +15°C° 0 mm 1 mps 734 mmHg 64%
    09:00 +16°C° 0 mm 2 mps 735 mmHg 58%
    10:00 +17°C° 0 mm 2 mps 735 mmHg 53%
    11:00 +18°C° 0 mm 3 mps 735 mmHg 48%
    12:00 +19°C° 0 mm 3 mps 735 mmHg 48%
    13:00 +19°C° 0 mm 4 mps 735 mmHg 49%
    14:00 +19°C° 0 mm 5 mps 735 mmHg 49%
    15:00 +19°C° 0 mm 4 mps 735 mmHg 52%
    16:00 +18°C° 0 mm 4 mps 734 mmHg 55%
    17:00 +17°C° 0 mm 4 mps 734 mmHg 57%
    18:00 +16°C° 0 mm 3 mps 734 mmHg 62%
    19:00 +14°C° 0 mm 2 mps 734 mmHg 66%
    20:00 +13°C° 0 mm 2 mps 734 mmHg 71%
    21:00 +13°C° 0 mm 2 mps 735 mmHg 72%
    22:00 +12°C° 0 mm 1 mps 735 mmHg 73%
    23:00 +12°C° 0 mm 1 mps 735 mmHg 74%

    Tomorrow, 24 April, Wednesday

    Time Temperature Precipitation Wind Pressure Humidity
    00:00 +12°C° 0 mm 1 mps 735 mmHg 75%
    01:00 +12°C° 0 mm 1 mps 735 mmHg 76%
    02:00 +12°C° 0 mm 1 mps 735 mmHg 77%
    03:00 +12°C° 0 mm 1 mps 735 mmHg 77%
    04:00 +12°C° 0 mm 1 mps 735 mmHg 77%
    05:00 +12°C° 0 mm 1 mps 735 mmHg 77%
    06:00 +14°C° 0 mm 2 mps 735 mmHg 67%
    07:00 +16°C° 0 mm 2 mps 735 mmHg 58%
    08:00 +19°C° 0 mm 2 mps 736 mmHg 49%
    09:00 +21°C° 0 mm 2 mps 736 mmHg 42%
    10:00 +22°C° 0 mm 3 mps 736 mmHg 35%
    11:00 +25°C° 0 mm 3 mps 736 mmHg 28%
    12:00 +26°C° 0 mm 3 mps 736 mmHg 28%
    13:00 +26°C° 0 mm 3 mps 736 mmHg 29%
    14:00 +26°C° 0 mm 2 mps 735 mmHg 30%
    15:00 +25°C° 0 mm 3 mps 735 mmHg 35%
    16:00 +24°C° 0 mm 3 mps 734 mmHg 40%
    17:00 +22°C° 0 mm 3 mps 734 mmHg 46%
    18:00 +20°C° 0 mm 3 mps 734 mmHg 50%
    19:00 +19°C° 0 mm 3 mps 734 mmHg 54%
    20:00 +17°C° 0 mm 2 mps 734 mmHg 58%
    21:00 +17°C° 0 mm 2 mps 734 mmHg 58%
    22:00 +16°C° 0 mm 2 mps 734 mmHg 58%
    23:00 +16°C° 0 mm 1 mps 734 mmHg 58%

    Day after tomorrow, 25 April, Thursday

    Time Temperature Precipitation Wind Pressure Humidity
    00:00 +16°C° 0 mm 1 mps 733 mmHg 58%
    01:00 +16°C° 0 mm 1 mps 733 mmHg 57%
    02:00 +16°C° 0 mm 1 mps 733 mmHg 57%
    03:00 +16°C° 0 mm 1 mps 733 mmHg 55%
    04:00 +15°C° 0 mm 1 mps 733 mmHg 53%
    05:00 +15°C° 0 mm 1 mps 733 mmHg 51%
    06:00 +19°C° 0 mm 1 mps 733 mmHg 46%
    07:00 +21°C° 0 mm 1 mps 734 mmHg 41%
    08:00 +23°C° 0 mm 1 mps 734 mmHg 36%
    09:00 +25°C° 0 mm 1 mps 734 mmHg 32%
    10:00 +26°C° 0 mm 1 mps 734 mmHg 29%
    11:00 +28°C° 0 mm 1 mps 734 mmHg 26%
    12:00 +28°C° 0 mm 2 mps 734 mmHg 28%
    13:00 +28°C° 0 mm 3 mps 733 mmHg 29%
    14:00 +28°C° 0 mm 4 mps 733 mmHg 31%
    15:00 +27°C° 0 mm 3 mps 732 mmHg 35%
    16:00 +26°C° 0 mm 3 mps 732 mmHg 39%
    17:00 +24°C° 0 mm 3 mps 731 mmHg 43%
    18:00 +21°C° 0 mm 3 mps 732 mmHg 47%
    19:00 +19°C° 0 mm 2 mps 732 mmHg 51%
    20:00 +18°C° 0 mm 2 mps 732 mmHg 55%
    21:00 +17°C° 0 mm 2 mps 731 mmHg 55%
    22:00 +18°C° 0 mm 1 mps 731 mmHg 55%
    23:00 +16°C° 0 mm 1 mps 731 mmHg 55%

    26 April, Friday

    Time Temperature Precipitation Wind Pressure Humidity
    00:00 +16°C° 0 mm 1 mps 731 mmHg 54%
    01:00 +16°C° 0 mm 1 mps 731 mmHg 53%
    02:00 +15°C° 0 mm 0 mps 730 mmHg 52%
    03:00 +15°C° 0 mm 0 mps 730 mmHg 52%
    04:00 +15°C° 0 mm 0 mps 730 mmHg 51%
    05:00 +14°C° 0 mm 0 mps 730 mmHg 50%
    06:00 +17°C° 0 mm 0 mps 730 mmHg 47%
    07:00 +19°C° 0 mm 0 mps 731 mmHg 43%
    08:00 +21°C° 0 mm 0 mps 731 mmHg 39%
    09:00 +24°C° 0 mm 1 mps 731 mmHg 37%
    10:00 +26°C° 0 mm 1 mps 731 mmHg 34%
    11:00 +28°C° 0 mm 2 mps 731 mmHg 31%
    12:00 +27°C° 0 mm 3 mps 731 mmHg 34%
    13:00 +27°C° 0 mm 4 mps 730 mmHg 36%
    14:00 +27°C° 0 mm 4 mps 730 mmHg 39%
    15:00 +25°C° 0 mm 4 mps 730 mmHg 42%
    16:00 +24°C° 0 mm 3 mps 729 mmHg 46%
    17:00 +23°C° 0 mm 2 mps 729 mmHg 49%
    18:00 +21°C° 0 mm 2 mps 729 mmHg 53%
    19:00 +20°C° 0 mm 1 mps 729 mmHg 57%
    20:00 +17°C° 0 mm 0 mps 729 mmHg 62%
    21:00 +17°C° 0 mm 0 mps 729 mmHg 60%
    22:00 +19°C° 0 mm 1 mps 729 mmHg 58%
    23:00 +19°C° 0 mm 1 mps 729 mmHg 57%

    27 April, Saturday

    Time Temperature Precipitation Wind Pressure Humidity
    00:00 +19°C° 0 mm 1 mps 729 mmHg 58%
    01:00 +18°C° 0 mm 1 mps 728 mmHg 60%
    02:00 +18°C° 0 mm 1 mps 728 mmHg 61%
    03:00 +18°C° 0 mm 1 mps 728 mmHg 63%
    04:00 +15°C° 0 mm 0 mps 728 mmHg 65%
    05:00 +15°C° 0 mm 0 mps 728 mmHg 67%
    06:00 +16°C° 0 mm 0 mps 728 mmHg 60%
    07:00 +20°C° 0 mm 1 mps 729 mmHg 53%
    08:00 +22°C° 0 mm 1 mps 729 mmHg 46%
    09:00 +23°C° 0 mm 1 mps 729 mmHg 43%
    10:00 +24°C° 0 mm 2 mps 729 mmHg 40%
    11:00 +26°C° 0 mm 3 mps 729 mmHg 37%
    12:00 +26°C° 0 mm 3 mps 729 mmHg 39%
    13:00 +26°C° 0 mm 4 mps 729 mmHg 41%
    14:00 +25°C° 0 mm 4 mps 728 mmHg 43%
    15:00 +25°C° 0 mm 3 mps 728 mmHg 46%
    16:00 +24°C° 0 mm 3 mps 728 mmHg 49%
    17:00 +23°C° 0 mm 2 mps 728 mmHg 52%
    18:00 +20°C° 0 mm 2 mps 728 mmHg 58%
    19:00 +20°C° 0 mm 1 mps 728 mmHg 63%
    20:00 +18°C° 0 mm 1 mps 729 mmHg 69%
    21:00 +16°C° 0 mm 0 mps 728 mmHg 70%
    22:00 +16°C° 0 mm 0 mps 728 mmHg 71%
    23:00 +15°C° 0 mm 0 mps 728 mmHg 71%

    28 April, Sunday

    Time Temperature Precipitation Wind Pressure Humidity
    00:00 +15°C° 0 mm 0 mps 728 mmHg 72%
    01:00 +15°C° 0 mm 0 mps 728 mmHg 72%
    02:00 +15°C° 0 mm 0 mps 728 mmHg 72%
    03:00 +14°C° 0 mm 0 mps 728 mmHg 72%
    04:00 +14°C° 0 mm 0 mps 728 mmHg 72%
    05:00 +14°C° 0 mm 0 mps 728 mmHg 72%
    06:00 +16°C° 0 mm 0 mps 728 mmHg 65%
    07:00 +18°C° 0 mm 0 mps 729 mmHg 59%
    08:00 +20°C° 0 mm 0 mps 729 mmHg 52%
    09:00 +22°C° 0 mm 0 mps 729 mmHg 47%
    10:00 +25°C° 0 mm 1 mps 729 mmHg 43%
    11:00 +27°C° 0 mm 2 mps 729 mmHg 38%
    12:00 +27°C° 0 mm 3 mps 729 mmHg 39%
    13:00 +27°C° 0 mm 3 mps 729 mmHg 40%
    14:00 +27°C° 0 mm 4 mps 728 mmHg 41%
    15:00 +26°C° 0 mm 3 mps 728 mmHg 44%
    16:00 +25°C° 0 mm 3 mps 728 mmHg 47%
    17:00 +24°C° 0 mm 2 mps 728 mmHg 50%
    18:00 +23°C° 0 mm 2 mps 728 mmHg 55%
    19:00 +20°C° 0 mm 2 mps 728 mmHg 60%
    20:00 +20°C° 0 mm 1 mps 728 mmHg 65%
    21:00 +19°C° 0 mm 1 mps 728 mmHg 65%
    22:00 +19°C° 0 mm 1 mps 728 mmHg 65%
    23:00 +18°C° 0 mm 1 mps 728 mmHg 66%
    Show more